This is the latest recevied weather packets stored in our database for station/object VK4TOM-13. If no packets are shown the sender has not sent any weather packets the latest 10 day(s).
| Time | Temp. | Humidity | Pressure | Rain* | Wind** | Luminosity | Snow |
|---|---|---|---|---|---|---|---|
| 1787891500 | 30° C | 54% | 1021.4 hPa | 0 mm | - | - | - |
| 1787890899 | 30.56° C | 54% | 1021.6 hPa | 0 mm | - | - | - |
| 1787889696 | 28.89° C | 61% | 1021.7 hPa | 0 mm | - | - | - |
| 1787888494 | 28.33° C | 60% | 1022 hPa | 0 mm | - | - | - |
| 1787887893 | 29.44° C | 55% | 1022.1 hPa | 0 mm | - | - | - |
| 1787886090 | 29.44° C | 51% | 1022.7 hPa | 0 mm | - | - | - |
| 1787885490 | 30.56° C | 60% | 1022.8 hPa | 0 mm | - | - | - |
| 1787881487 | 27.22° C | 70% | 1024.3 hPa | 0 mm | - | - | - |
| 1787880284 | 26.67° C | 70% | 1024.7 hPa | 0 mm | - | - | - |
| 1787879683 | 27.22° C | 70% | 1024.8 hPa | 0 mm | - | - | - |
| 1787879082 | 27.22° C | 70% | 1024.9 hPa | 0 mm | - | - | - |
| 1787877807 | 26.11° C | 70% | 1025.2 hPa | 0 mm | - | - | - |
| 1787877206 | 25.56° C | 70% | 1025.1 hPa | 0 mm | - | - | - |
| 1787876606 | 26.11° C | 70% | 1025.2 hPa | 0 mm | - | - | - |
| 1787875274 | 25.56° C | 70% | 1025.5 hPa | 0 mm | - | - | - |
| 1787874673 | 25° C | 70% | 1025.6 hPa | 0 mm | - | - | - |
| 1787874072 | 24.44° C | 70% | 1025.7 hPa | 0 mm | - | - | - |
| 1787873471 | 25° C | 70% | 1025.8 hPa | 0 mm | - | - | - |
| 1787872870 | 24.44° C | 70% | 1025.8 hPa | 0 mm | - | - | - |
| 1787872269 | 23.89° C | 70% | 1025.9 hPa | 0 mm | - | - | - |
| 1787871668 | 23.89° C | 70% | 1025.8 hPa | 0 mm | - | - | - |
| 1787871473 | 23.33° C | 70% | 1025.9 hPa | 0 mm | - | - | - |
| 1787871178 | 23.33° C | 70% | 1025.8 hPa | 0 mm | - | - | - |
| 1787870998 | 23.33° C | 70% | 1025.7 hPa | 0 mm | - | - | - |
| 1787870760 | 22.78° C | 70% | 1025.7 hPa | 0 mm | - | - | - |
* Rain since midnight (hover to see other rain measurements)
** Current wind speed in m/s (hover to see current wind gust speed)